Location: Camp Crosley/WAS Observatory
(41.3169°N, 85.7175°W)
Time: 17:12:00
(UTC-05:00)

ISS - Visible Passes

Search period start: 05 November 2024 00:00
Search period end: 15 November 2024 00:00
Orbit: 407 x 419 km, 51.6° (Epoch: 05 November)

Date Brightness Start Highest point End Pass type
(mag) Time Alt. Az. Time Alt. Az. Time Alt. Az.
05 Nov -2.9 05:27:36 42° SSE 05:27:36 42° SSE 05:29:59 10° SE visible
06 Nov -1.6 06:13:29 13° SW 06:13:29 13° SW 06:14:58 10° SSW visible
07 Nov -1.0 05:26:33 11° S 05:26:33 11° S 05:26:44 10° S visible
12 Nov -1.7 19:30:24 10° SW 19:31:50 23° SSW 19:31:50 23° SSW visible
13 Nov -2.6 18:40:57 10° SSW 18:43:51 27° SE 18:44:21 26° ESE visible
14 Nov -1.7 17:52:00 10° S 17:54:05 16° SE 17:56:09 10° E visible
14 Nov -2.6 19:27:05 10° WSW 19:29:33 43° W 19:29:33 43° W visible
